Regional Weather Roundup
Issued by NWS

Home | Current Version | Previous Version | Text Only | Print | Product List | Glossary Off
Versions: 1 2 3 4 5 6 7 8 9 10 11 12 13 14 15 16 17 18 19 20 21 22 23 24 25 26 27 28 29 30 31 32 33 34 35 36 37 38 39 40 41 42 43 44 45 46 47 48 49 50

000
ASUS43 KBIS 281002
RWRND

NORTH DAKOTA REGIONAL WEATHER ROUNDUP
NATIONAL WEATHER SERVICE BISMARCK ND
500 AM CDT SUN AUG 28 2016

NOTE: "FAIR" INDICATES FEW OR NO CLOUDS BELOW 12,000 FEET WITH NO
SIGNIFICANT WEATHER AND/OR OBSTRUCTIONS TO VISIBILITY.


NDZ001>003-009>011-017-281100-
NORTHWEST NORTH DAKOTA

CITY           SKY/WX    TMP DP  RH WIND       PRES   REMARKS
WILLISTON      CLOUDY    65  48  54 S7        29.82S
MINOT          CLEAR     55  49  80 CALM      29.85F
MINOT AFB      CLEAR     53  49  85 SE7       29.85S
$$

NDZ018>021-031>035-040>046-281100-
SOUTHWEST NORTH DAKOTA

CITY           SKY/WX    TMP DP  RH WIND       PRES   REMARKS
BISMARCK       PTCLDY    57  53  86 NE8       29.89F
DICKINSON      CLEAR     59  52  77 S13       29.86F
GARRISON         N/A     57  52  83 E5        29.87F
HETTINGER ARPT CLEAR     52  49  89 CALM      29.90R
$$

NDZ004>008-012>016-024-026-027-054-281100-
NORTHEAST NORTH DAKOTA

CITY           SKY/WX    TMP DP  RH WIND       PRES   REMARKS
GRAND FORKS    CLEAR     58  55  90 SE7       29.97R
GRND FRKS AFB  CLEAR     57  56  97 S7        29.98R
DEVILS LAKE    CLEAR     61  59  93 SE8       29.95S
$$

NDZ022-023-025-028>030-036>039-047>053-281100-
SOUTHEAST NORTH DAKOTA

CITY           SKY/WX    TMP DP  RH WIND       PRES   REMARKS
FARGO          CLEAR     62  58  86 S12       30.00R
JAMESTOWN      CLEAR     59  58  96 SE7       29.95R
$$





USA.gov is the U.S. government's official web portal to all federal, state and local government web resources and services.